Avondale, Kentucky
Current Conditions -  °F | °C
As of 8:53 PM on Saturday 25 Oct 2014 (Local Time) from KPAH Reporting Station
Clear Clear  
Wind Chill: 57°   Ceiling: Unl
Heat Index: 57°   Visibility: 7mi
Dew Point: 56°   Wind: 5mph
Humidity: 96%   Direction: 220°SW
Pressure: 30"   Gusts: NA
Location:  37.0331°N, 88.716°W
Report Text: KPAH 260153Z 22004KT 7SM CLR 14/13 A3000 RMK AO2 SLP158 T01390133
Loading
Personal Weather Stations






























Interactive Weather Map
Tropical Storm Tracking
New forecast layout! Learn more

10-Day Weather Forecast

Advertisements
Track Severe Weather on mobile